Location: Asheville, NC
(35.6000°N, 82.5500°W)
Time: 12:15:59
(UTC-04:00)

HO-68 - Pass Details

Date: 03 January 2018
Orbit: 1192 x 1205 km, 100.1° (Epoch: 23 June)

Event Time Altitude Azimuth Distance (km) Brightness Sun altitude
Rises 18:51:21 0° 167° (SSE) 4,091 ? -16.2°
Reaches altitude 10° 18:53:58 10° 168° (SSE) 3,128 ? -16.7°
Maximum altitude 19:01:08 79° 255° (WSW) 1,220 ? -18.1°
Drops below altitude 10° 19:08:20 10° 343° (NNW) 3,136 ? -19.5°
Sets 19:10:57 0° 345° (NNW) 4,101 ? -20.0°
